Time,TemperatureF,DewpointF,PressureIn,WindDirection,WindDirectionDegrees,WindSpeedMPH,WindSpeedGustMPH,Humidity,HourlyPrecipIn,Conditions,Clouds,dailyrainin,SoftwareType,DateUTC
2013-06-14 00:01:00,54.9,46.0,0.00,NNW,337,0.0,0.0,72,0.00,,---,0.00,VWS V14.01,2013-06-14 04:01:00,
2013-06-14 00:06:00,54.9,46.0,0.00,NNW,337,0.0,0.0,72,0.00,,---,0.00,VWS V14.01,2013-06-14 04:06:00,
2013-06-14 00:11:00,54.9,46.0,0.00,NNW,337,0.0,0.0,72,0.00,,---,0.00,VWS V14.01,2013-06-14 04:11:00,
2013-06-14 00:16:00,54.9,46.0,0.00,NNW,337,0.0,0.0,72,0.00,,---,0.00,VWS V14.01,2013-06-14 04:16:00,
2013-06-14 00:21:00,54.7,45.8,0.00,NNW,337,0.0,0.0,72,0.00,,---,0.00,VWS V14.01,2013-06-14 04:21:00,
2013-06-14 00:26:00,54.7,45.8,0.00,NNW,337,0.0,0.0,72,0.00,,---,0.00,VWS V14.01,2013-06-14 04:26:00,
2013-06-14 00:31:00,54.7,46.2,0.00,NNW,337,0.0,0.0,73,0.00,,---,0.00,VWS V14.01,2013-06-14 04:31:00,
2013-06-14 00:36:00,54.7,46.2,0.00,NNW,337,0.0,0.0,73,0.00,,---,0.00,VWS V14.01,2013-06-14 04:36:00,
2013-06-14 00:41:00,54.7,46.2,0.00,NNW,337,0.0,0.0,73,0.00,,---,0.00,VWS V14.01,2013-06-14 04:41:00,
2013-06-14 00:46:00,54.5,46.0,0.00,NNW,337,0.0,0.0,73,0.00,,---,0.00,VWS V14.01,2013-06-14 04:46:00,
2013-06-14 00:51:00,54.5,46.0,0.00,NNW,337,0.0,0.0,73,0.00,,---,0.00,VWS V14.01,2013-06-14 04:51:00,
2013-06-14 00:56:00,54.5,46.0,0.00,NNW,337,0.0,0.0,73,0.00,,---,0.00,VWS V14.01,2013-06-14 04:56:00,
2013-06-14 01:01:00,54.5,46.0,0.00,NNW,336,0.0,0.0,73,0.00,,---,0.00,VWS V14.01,2013-06-14 05:01:00,
2013-06-14 01:06:00,54.5,46.0,0.00,NNW,337,0.0,0.0,73,0.00,,---,0.00,VWS V14.01,2013-06-14 05:06:00,
2013-06-14 01:11:00,54.5,46.0,0.00,NNW,337,0.0,0.0,73,0.00,,---,0.00,VWS V14.01,2013-06-14 05:11:00,
2013-06-14 01:16:00,54.5,46.0,0.00,NNW,337,0.0,0.0,73,0.00,,---,0.00,VWS V14.01,2013-06-14 05:16:00,
2013-06-14 01:21:00,54.5,46.0,0.00,NNW,337,0.0,0.0,73,0.00,,---,0.00,VWS V14.01,2013-06-14 05:21:00,
2013-06-14 01:26:00,54.3,45.9,0.00,NNW,337,0.0,0.0,73,0.00,,---,0.00,VWS V14.01,2013-06-14 05:26:00,
2013-06-14 01:31:00,54.1,45.7,0.00,NNW,337,0.0,0.0,73,0.00,,---,0.00,VWS V14.01,2013-06-14 05:31:00,
2013-06-14 01:36:00,54.0,45.5,0.00,NNW,337,0.0,0.0,73,0.00,,---,0.00,VWS V14.01,2013-06-14 05:36:00,
2013-06-14 01:41:00,54.0,45.5,0.00,NNW,337,0.0,0.0,73,0.00,,---,0.00,VWS V14.01,2013-06-14 05:41:00,
2013-06-14 01:46:00,54.0,45.9,0.00,NNW,337,0.0,0.0,74,0.00,,---,0.00,VWS V14.01,2013-06-14 05:46:00,
2013-06-14 01:51:00,54.0,45.9,0.00,NNW,337,0.0,0.0,74,0.00,,---,0.00,VWS V14.01,2013-06-14 05:51:00,
2013-06-14 01:56:00,53.6,45.5,0.00,NNW,337,0.0,0.0,74,0.00,,---,0.00,VWS V14.01,2013-06-14 05:56:00,
2013-06-14 02:01:00,53.6,45.5,0.00,NNW,337,0.0,0.0,74,0.00,,---,0.00,VWS V14.01,2013-06-14 06:01:00,
2013-06-14 02:06:00,53.6,45.5,0.00,NNW,337,0.0,0.0,74,0.00,,---,0.00,VWS V14.01,2013-06-14 06:06:00,
2013-06-14 02:11:00,53.2,45.2,0.00,NNW,337,0.0,0.0,74,0.00,,---,0.00,VWS V14.01,2013-06-14 06:11:00,
2013-06-14 02:16:00,53.2,45.2,0.00,NNW,337,0.0,0.0,74,0.00,,---,0.00,VWS V14.01,2013-06-14 06:16:00,
2013-06-14 02:21:00,53.1,45.0,0.00,NNW,337,0.0,0.0,74,0.00,,---,0.00,VWS V14.01,2013-06-14 06:21:00,
2013-06-14 02:26:00,53.1,45.0,0.00,NNW,337,0.0,0.0,74,0.00,,---,0.00,VWS V14.01,2013-06-14 06:26:00,
2013-06-14 02:31:00,53.1,45.0,0.00,NNW,337,0.0,0.0,74,0.00,,---,0.00,VWS V14.01,2013-06-14 06:31:00,
2013-06-14 02:36:00,52.7,44.7,0.00,NNW,337,0.0,0.0,74,0.00,,---,0.00,VWS V14.01,2013-06-14 06:36:00,
2013-06-14 02:41:00,52.7,44.7,0.00,NNW,337,0.0,0.0,74,0.00,,---,0.00,VWS V14.01,2013-06-14 06:41:00,
2013-06-14 02:46:00,52.5,44.5,0.00,NNW,337,0.0,0.0,74,0.00,,---,0.00,VWS V14.01,2013-06-14 06:46:00,
2013-06-14 02:51:00,52.5,44.5,0.00,NNW,337,0.0,0.0,74,0.00,,---,0.00,VWS V14.01,2013-06-14 06:51:00,
2013-06-14 02:56:00,52.3,44.3,0.00,NNW,337,0.0,0.0,74,0.00,,---,0.00,VWS V14.01,2013-06-14 06:56:00,
2013-06-14 03:01:00,52.3,44.3,0.00,NNW,337,0.0,0.0,74,0.00,,---,0.00,VWS V14.01,2013-06-14 07:01:00,
2013-06-14 03:06:00,52.2,44.1,0.00,NNW,337,0.0,0.0,74,0.00,,---,0.00,VWS V14.01,2013-06-14 07:06:00,
2013-06-14 03:11:00,52.0,44.0,0.00,NNW,337,0.0,0.0,74,0.00,,---,0.00,VWS V14.01,2013-06-14 07:11:00,
2013-06-14 03:16:00,52.0,44.0,0.00,NNW,337,0.0,0.0,74,0.00,,---,0.00,VWS V14.01,2013-06-14 07:16:00,
2013-06-14 03:21:00,51.8,43.8,0.00,NNW,337,0.0,0.0,74,0.00,,---,0.00,VWS V14.01,2013-06-14 07:21:00,
2013-06-14 03:26:00,51.8,43.8,0.00,NNW,337,0.0,0.0,74,0.00,,---,0.00,VWS V14.01,2013-06-14 07:26:00,
2013-06-14 03:31:00,51.8,43.8,0.00,NNW,337,0.0,0.0,74,0.00,,---,0.00,VWS V14.01,2013-06-14 07:31:00,
2013-06-14 03:36:00,51.8,43.8,0.00,NNW,338,0.0,0.0,74,0.00,,---,0.00,VWS V14.01,2013-06-14 07:36:00,
2013-06-14 03:41:00,51.6,44.0,0.00,NNW,337,0.0,0.0,75,0.00,,---,0.00,VWS V14.01,2013-06-14 07:41:00,
2013-06-14 03:46:00,51.4,43.8,0.00,NNW,337,0.0,0.0,75,0.00,,---,0.00,VWS V14.01,2013-06-14 07:46:00,
2013-06-14 03:51:00,51.4,43.8,0.00,NNW,337,0.0,0.0,75,0.00,,---,0.00,VWS V14.01,2013-06-14 07:51:00,
2013-06-14 03:56:00,51.3,43.6,0.00,NNW,337,0.0,0.0,75,0.00,,---,0.00,VWS V14.01,2013-06-14 07:56:00,
2013-06-14 04:01:00,51.1,43.4,0.00,NNW,337,0.0,0.0,75,0.00,,---,0.00,VWS V14.01,2013-06-14 08:01:00,
2013-06-14 04:06:00,51.1,43.4,0.00,NNW,337,0.0,0.0,75,0.00,,---,0.00,VWS V14.01,2013-06-14 08:06:00,
2013-06-14 04:11:00,50.9,42.9,0.00,NNW,339,0.0,0.0,74,0.00,,---,0.00,VWS V14.01,2013-06-14 08:11:00,
2013-06-14 04:16:00,50.9,42.9,0.00,NNW,337,0.0,0.0,74,0.00,,---,0.00,VWS V14.01,2013-06-14 08:16:00,
2013-06-14 04:21:00,50.7,43.1,0.00,NNW,337,0.0,0.0,75,0.00,,---,0.00,VWS V14.01,2013-06-14 08:21:00,
2013-06-14 04:26:00,50.7,43.1,0.00,NNW,337,0.0,0.0,75,0.00,,---,0.00,VWS V14.01,2013-06-14 08:26:00,
2013-06-14 04:31:00,50.7,43.1,0.00,NNW,337,0.0,0.0,75,0.00,,---,0.00,VWS V14.01,2013-06-14 08:31:00,
2013-06-14 04:36:00,50.5,42.6,0.00,NNW,337,0.0,0.0,74,0.00,,---,0.00,VWS V14.01,2013-06-14 08:36:00,
2013-06-14 04:41:00,50.4,42.4,0.00,NNW,337,0.0,0.0,74,0.00,,---,0.00,VWS V14.01,2013-06-14 08:41:00,
2013-06-14 04:46:00,50.2,42.2,0.00,NNW,337,0.0,0.0,74,0.00,,---,0.00,VWS V14.01,2013-06-14 08:46:00,
2013-06-14 04:51:00,50.2,42.2,0.00,NNW,337,0.0,0.0,74,0.00,,---,0.00,VWS V14.01,2013-06-14 08:51:00,
2013-06-14 04:56:00,50.2,42.2,0.00,NNW,337,0.0,0.0,74,0.00,,---,0.00,VWS V14.01,2013-06-14 08:56:00,
2013-06-14 05:01:00,50.0,42.0,0.00,NNW,337,0.0,0.0,74,0.00,,---,0.00,VWS V14.01,2013-06-14 09:01:00,
2013-06-14 05:06:00,50.0,42.0,0.00,NNW,337,0.0,0.0,74,0.00,,---,0.00,VWS V14.01,2013-06-14 09:06:00,
2013-06-14 05:11:00,50.0,42.0,0.00,NNW,337,0.0,0.0,74,0.00,,---,0.00,VWS V14.01,2013-06-14 09:11:00,
2013-06-14 05:17:00,49.6,42.0,0.00,NNW,337,0.0,0.0,75,0.00,,---,0.00,VWS V14.01,2013-06-14 09:17:00,
2013-06-14 05:22:00,49.6,42.0,0.00,NNW,337,0.0,0.0,75,0.00,,---,0.00,VWS V14.01,2013-06-14 09:22:00,
2013-06-14 05:27:00,49.6,42.0,0.00,NNW,337,0.0,0.0,75,0.00,,---,0.00,VWS V14.01,2013-06-14 09:27:00,
2013-06-14 05:32:00,49.8,42.2,0.00,NNW,337,0.0,0.0,75,0.00,,---,0.00,VWS V14.01,2013-06-14 09:32:00,
2013-06-14 05:37:00,49.6,42.0,0.00,NNW,337,0.0,0.0,75,0.00,,---,0.00,VWS V14.01,2013-06-14 09:37:00,
2013-06-14 05:42:00,49.6,42.0,0.00,NNW,337,0.0,0.0,75,0.00,,---,0.00,VWS V14.01,2013-06-14 09:42:00,
2013-06-14 05:47:00,49.6,42.0,0.00,NNW,337,0.0,0.0,75,0.00,,---,0.00,VWS V14.01,2013-06-14 09:47:00,
2013-06-14 05:52:00,49.6,42.0,0.00,NNW,337,0.0,0.0,75,0.00,,---,0.00,VWS V14.01,2013-06-14 09:52:00,
2013-06-14 05:57:00,49.6,42.0,0.00,NNW,337,0.0,0.0,75,0.00,,---,0.00,VWS V14.01,2013-06-14 09:57:00,
2013-06-14 06:02:00,49.6,42.0,0.00,NNW,337,0.0,0.0,75,0.00,,---,0.00,VWS V14.01,2013-06-14 10:02:00,
2013-06-14 06:07:00,49.6,42.0,0.00,NNW,337,0.0,0.0,75,0.00,,---,0.00,VWS V14.01,2013-06-14 10:07:00,
2013-06-14 06:12:00,49.8,42.2,0.00,NNW,337,0.0,0.0,75,0.00,,---,0.00,VWS V14.01,2013-06-14 10:12:00,
2013-06-14 06:17:00,49.8,42.2,0.00,NNW,337,0.0,0.0,75,0.00,,---,0.00,VWS V14.01,2013-06-14 10:17:00,
2013-06-14 06:22:00,50.0,42.4,0.00,NNW,337,0.0,0.0,75,0.00,,---,0.00,VWS V14.01,2013-06-14 10:22:00,
2013-06-14 06:27:00,50.0,42.4,0.00,NNW,337,0.0,0.0,75,0.00,,---,0.00,VWS V14.01,2013-06-14 10:27:00,
2013-06-14 06:32:00,50.0,42.4,0.00,NNW,337,0.0,0.0,75,0.00,,---,0.00,VWS V14.01,2013-06-14 10:32:00,
2013-06-14 06:37:00,50.2,42.6,0.00,NNW,336,0.0,0.0,75,0.00,,---,0.00,VWS V14.01,2013-06-14 10:37:00,
2013-06-14 06:42:00,50.2,42.6,0.00,NNW,337,0.0,0.0,75,0.00,,---,0.00,VWS V14.01,2013-06-14 10:42:00,
2013-06-14 06:47:00,50.4,42.8,0.00,NNW,337,0.0,0.0,75,0.00,,---,0.00,VWS V14.01,2013-06-14 10:47:00,
2013-06-14 06:52:00,50.4,42.8,0.00,NNW,337,0.0,0.0,75,0.00,,---,0.00,VWS V14.01,2013-06-14 10:52:00,
2013-06-14 06:57:00,50.7,43.1,0.00,NNW,337,0.0,0.0,75,0.00,,---,0.00,VWS V14.01,2013-06-14 10:57:00,
2013-06-14 07:02:00,50.7,43.1,0.00,NNW,338,0.0,0.0,75,0.00,,---,0.00,VWS V14.01,2013-06-14 11:02:00,
2013-06-14 07:07:00,50.9,43.6,0.00,NNW,337,0.0,0.0,76,0.00,,---,0.00,VWS V14.01,2013-06-14 11:07:00,
2013-06-14 07:12:00,51.4,44.1,0.00,NNW,337,0.0,0.0,76,0.00,,---,0.00,VWS V14.01,2013-06-14 11:12:00,
2013-06-14 07:17:00,51.6,44.3,0.00,NNW,337,0.0,0.0,76,0.00,,---,0.00,VWS V14.01,2013-06-14 11:17:00,
2013-06-14 07:22:00,51.8,44.5,0.00,NNW,337,0.0,0.0,76,0.00,,---,0.00,VWS V14.01,2013-06-14 11:22:00,
2013-06-14 07:27:00,52.0,44.7,0.00,NNW,337,0.0,0.0,76,0.00,,---,0.00,VWS V14.01,2013-06-14 11:27:00,
2013-06-14 07:32:00,52.2,44.8,0.00,NNW,337,0.0,0.0,76,0.00,,---,0.00,VWS V14.01,2013-06-14 11:32:00,
2013-06-14 07:37:00,52.5,45.2,0.00,NNW,337,0.0,0.0,76,0.00,,---,0.00,VWS V14.01,2013-06-14 11:37:00,
2013-06-14 07:42:00,52.5,45.2,0.00,NNW,337,0.0,0.0,76,0.00,,---,0.00,VWS V14.01,2013-06-14 11:42:00,
2013-06-14 07:47:00,52.9,45.5,0.00,NNW,337,0.0,0.0,76,0.00,,---,0.00,VWS V14.01,2013-06-14 11:47:00,
2013-06-14 07:52:00,53.2,46.2,0.00,NNW,337,0.0,0.0,77,0.00,,---,0.00,VWS V14.01,2013-06-14 11:52:00,
2013-06-14 07:57:00,53.2,46.2,0.00,NNW,337,0.0,0.0,77,0.00,,---,0.00,VWS V14.01,2013-06-14 11:57:00,
2013-06-14 08:02:00,53.2,46.2,0.00,NNW,337,0.0,0.0,77,0.00,,---,0.00,VWS V14.01,2013-06-14 12:02:00,
2013-06-14 08:07:00,54.0,46.9,0.00,NW,316,0.0,0.0,77,0.00,,---,0.00,VWS V14.01,2013-06-14 12:07:00,
2013-06-14 08:12:00,54.7,48.0,0.00,ENE,64,0.0,0.0,78,0.00,,---,0.00,VWS V14.01,2013-06-14 12:12:00,
2013-06-14 08:17:00,54.7,48.0,0.00,WNW,297,0.0,0.0,78,0.00,,---,0.00,VWS V14.01,2013-06-14 12:17:00,
2013-06-14 08:22:00,54.7,48.0,0.00,WSW,242,0.0,0.0,78,0.00,,---,0.00,VWS V14.01,2013-06-14 12:22:00,
2013-06-14 08:27:00,54.7,48.0,0.00,WNW,284,0.0,0.0,78,0.00,,---,0.00,VWS V14.01,2013-06-14 12:27:00,
2013-06-14 08:32:00,55.8,49.4,0.00,WNW,284,0.0,0.0,79,0.00,,---,0.00,VWS V14.01,2013-06-14 12:32:00,
2013-06-14 08:37:00,56.3,50.2,0.00,WNW,284,0.0,0.0,80,0.00,,---,0.00,VWS V14.01,2013-06-14 12:37:00,
2013-06-14 08:42:00,56.5,50.4,0.00,WNW,284,0.0,0.0,80,0.00,,---,0.00,VWS V14.01,2013-06-14 12:42:00,
2013-06-14 08:47:00,56.8,50.7,0.00,WSW,253,0.0,0.0,80,0.00,,---,0.00,VWS V14.01,2013-06-14 12:47:00,
2013-06-14 08:52:00,56.8,50.7,0.00,WSW,256,0.0,0.0,80,0.00,,---,0.00,VWS V14.01,2013-06-14 12:52:00,
2013-06-14 08:57:00,57.2,50.8,0.00,WSW,256,0.0,0.0,79,0.00,,---,0.00,VWS V14.01,2013-06-14 12:57:00,
2013-06-14 09:02:00,57.2,50.8,0.00,West,278,0.0,0.0,79,0.00,,---,0.00,VWS V14.01,2013-06-14 13:02:00,
2013-06-14 09:07:00,57.4,50.6,0.00,West,278,0.0,0.0,78,0.00,,---,0.00,VWS V14.01,2013-06-14 13:07:00,
2013-06-14 09:12:00,57.7,50.9,0.00,North,357,0.0,0.0,78,0.00,,---,0.00,VWS V14.01,2013-06-14 13:12:00,
2013-06-14 09:17:00,58.1,51.3,0.00,WNW,283,0.0,0.0,78,0.00,,---,0.00,VWS V14.01,2013-06-14 13:17:00,
2013-06-14 09:22:00,58.3,51.5,0.00,ENE,77,0.0,0.0,78,0.00,,---,0.00,VWS V14.01,2013-06-14 13:22:00,
2013-06-14 09:27:00,58.3,51.5,0.00,WNW,300,0.0,0.0,78,0.00,,---,0.00,VWS V14.01,2013-06-14 13:27:00,
2013-06-14 09:32:00,58.8,51.3,0.00,West,269,0.0,0.0,76,0.00,,---,0.00,VWS V14.01,2013-06-14 13:32:00,
2013-06-14 09:37:00,58.8,51.3,0.00,West,268,0.0,0.0,76,0.00,,---,0.00,VWS V14.01,2013-06-14 13:37:00,
2013-06-14 09:42:00,59.0,50.7,0.00,West,268,0.0,0.0,74,0.00,,---,0.00,VWS V14.01,2013-06-14 13:42:00,
2013-06-14 09:47:00,59.4,51.1,0.00,SW,236,2.7,3.1,74,0.00,,---,0.00,VWS V14.01,2013-06-14 13:47:00,
2013-06-14 09:52:00,59.4,51.1,0.00,WSW,243,0.0,0.0,74,0.00,,---,0.00,VWS V14.01,2013-06-14 13:52:00,
2013-06-14 09:57:00,59.9,50.9,0.00,WSW,247,3.6,3.6,72,0.00,,---,0.00,VWS V14.01,2013-06-14 13:57:00,
2013-06-14 10:02:00,59.9,50.9,0.00,West,281,0.0,0.0,72,0.00,,---,0.00,VWS V14.01,2013-06-14 14:02:00,
2013-06-14 10:07:00,60.6,50.8,0.00,NNW,340,0.0,0.0,70,0.00,,---,0.00,VWS V14.01,2013-06-14 14:07:00,
2013-06-14 10:12:00,61.0,50.4,0.00,East,83,2.7,2.7,68,0.00,,---,0.00,VWS V14.01,2013-06-14 14:12:00,
2013-06-14 10:17:00,61.0,50.4,0.00,WSW,250,0.0,2.7,68,0.00,,---,0.00,VWS V14.01,2013-06-14 14:17:00,
2013-06-14 10:22:00,61.7,49.8,0.00,SW,230,0.0,0.0,65,0.00,,---,0.00,VWS V14.01,2013-06-14 14:22:00,
2013-06-14 10:27:00,61.7,49.8,0.00,NW,304,2.7,2.7,65,0.00,,---,0.00,VWS V14.01,2013-06-14 14:27:00,
2013-06-14 10:32:00,62.4,48.8,0.00,South,176,3.6,3.6,61,0.00,,---,0.00,VWS V14.01,2013-06-14 14:32:00,
2013-06-14 10:37:00,62.6,46.7,0.00,NE,47,0.0,0.0,56,0.00,,---,0.00,VWS V14.01,2013-06-14 14:37:00,
2013-06-14 10:42:00,62.6,46.7,0.00,NW,310,0.0,2.7,56,0.00,,---,0.00,VWS V14.01,2013-06-14 14:42:00,
2013-06-14 10:47:00,63.3,46.9,0.00,West,279,2.7,2.7,55,0.00,,---,0.00,VWS V14.01,2013-06-14 14:47:00,
2013-06-14 10:52:00,63.3,46.9,0.00,West,279,2.7,2.7,55,0.00,,---,0.00,VWS V14.01,2013-06-14 14:52:00,
2013-06-14 10:57:00,64.2,46.2,0.00,NNE,21,0.0,0.0,52,0.00,,---,0.00,VWS V14.01,2013-06-14 14:57:00,
2013-06-14 11:02:00,64.2,46.2,0.00,North,357,2.2,2.2,52,0.00,,---,0.00,VWS V14.01,2013-06-14 15:02:00,
2013-06-14 11:07:00,64.2,46.2,0.00,NW,326,3.6,3.6,52,0.00,,---,0.00,VWS V14.01,2013-06-14 15:07:00,
2013-06-14 11:12:00,64.2,46.2,0.00,North,3,0.0,0.0,52,0.00,,---,0.00,VWS V14.01,2013-06-14 15:12:00,
2013-06-14 11:17:00,65.5,45.8,0.00,SE,129,0.0,0.0,49,0.00,,---,0.00,VWS V14.01,2013-06-14 15:17:00,
2013-06-14 11:22:00,65.8,46.2,0.00,NW,310,0.0,0.0,49,0.00,,---,0.00,VWS V14.01,2013-06-14 15:22:00,
2013-06-14 11:27:00,66.0,45.8,0.00,NW,310,0.0,0.0,48,0.00,,---,0.00,VWS V14.01,2013-06-14 15:27:00,
2013-06-14 11:32:00,66.6,44.0,0.00,ENE,75,0.0,0.0,44,0.00,,---,0.00,VWS V14.01,2013-06-14 15:32:00,
2013-06-14 11:37:00,66.6,44.0,0.00,WSW,243,0.0,0.0,44,0.00,,---,0.00,VWS V14.01,2013-06-14 15:37:00,
2013-06-14 11:42:00,66.6,43.4,0.00,WSW,243,0.0,0.0,43,0.00,,---,0.00,VWS V14.01,2013-06-14 15:42:00,
2013-06-14 11:47:00,66.0,42.3,0.00,North,353,3.6,3.6,42,0.00,,---,0.00,VWS V14.01,2013-06-14 15:47:00,
2013-06-14 11:52:00,66.0,42.3,0.00,South,184,0.0,0.0,42,0.00,,---,0.00,VWS V14.01,2013-06-14 15:52:00,
2013-06-14 11:57:00,66.7,43.5,0.00,WNW,296,0.0,0.0,43,0.00,,---,0.00,VWS V14.01,2013-06-14 15:57:00,
2013-06-14 12:02:00,67.3,44.0,0.00,NW,321,0.0,0.0,43,0.00,,---,0.00,VWS V14.01,2013-06-14 16:02:00,
2013-06-14 12:07:00,67.3,44.0,0.00,NW,315,0.0,0.0,43,0.00,,---,0.00,VWS V14.01,2013-06-14 16:07:00,
2013-06-14 12:12:00,68.4,45.0,0.00,North,357,0.0,0.0,43,0.00,,---,0.00,VWS V14.01,2013-06-14 16:12:00,
2013-06-14 12:17:00,68.5,43.3,0.00,ENE,64,0.0,0.0,40,0.00,,---,0.00,VWS V14.01,2013-06-14 16:17:00,
2013-06-14 12:22:00,69.1,44.4,0.00,NW,313,0.0,0.0,41,0.00,,---,0.00,VWS V14.01,2013-06-14 16:22:00,
2013-06-14 12:27:00,69.1,43.8,0.00,NNW,346,0.0,0.0,40,0.00,,---,0.00,VWS V14.01,2013-06-14 16:27:00,
2013-06-14 12:32:00,69.3,42.6,0.00,SSW,212,0.0,0.0,38,0.00,,---,0.00,VWS V14.01,2013-06-14 16:32:00,
2013-06-14 12:38:00,69.3,42.6,0.00,SW,223,0.0,0.0,38,0.00,,---,0.00,VWS V14.01,2013-06-14 16:38:00,
2013-06-14 12:43:00,69.1,41.0,0.00,SE,135,2.7,3.6,36,0.00,,---,0.00,VWS V14.01,2013-06-14 16:43:00,
2013-06-14 12:48:00,69.6,42.2,0.00,NNW,334,2.2,2.2,37,0.00,,---,0.00,VWS V14.01,2013-06-14 16:48:00,
2013-06-14 12:53:00,69.8,41.7,0.00,North,357,0.0,0.0,36,0.00,,---,0.00,VWS V14.01,2013-06-14 16:53:00,
2013-06-14 12:58:00,69.8,41.7,0.00,WNW,303,0.0,0.0,36,0.00,,---,0.00,VWS V14.01,2013-06-14 16:58:00,
2013-06-14 13:03:00,69.8,41.7,0.00,NW,313,0.0,0.0,36,0.00,,---,0.00,VWS V14.01,2013-06-14 17:03:00,
2013-06-14 13:08:00,70.9,41.9,0.00,NNW,344,0.0,0.0,35,0.00,,---,0.00,VWS V14.01,2013-06-14 17:08:00,
2013-06-14 13:13:00,70.9,41.9,0.00,NW,323,5.4,5.4,35,0.00,,---,0.00,VWS V14.01,2013-06-14 17:13:00,
2013-06-14 13:18:00,71.1,41.3,0.00,North,353,0.0,0.0,34,0.00,,---,0.00,VWS V14.01,2013-06-14 17:18:00,
2013-06-14 13:23:00,71.1,41.3,0.00,NNW,329,0.0,0.0,34,0.00,,---,0.00,VWS V14.01,2013-06-14 17:23:00,
2013-06-14 13:28:00,71.1,41.3,0.00,NW,310,2.2,2.2,34,0.00,,---,0.00,VWS V14.01,2013-06-14 17:28:00,
2013-06-14 13:33:00,69.8,40.2,0.00,NW,308,2.7,2.7,34,0.00,,---,0.00,VWS V14.01,2013-06-14 17:33:00,
2013-06-14 13:38:00,69.8,40.2,0.00,WNW,294,0.0,0.0,34,0.00,,---,0.00,VWS V14.01,2013-06-14 17:38:00,
2013-06-14 13:43:00,70.3,40.7,0.00,NE,56,0.0,0.0,34,0.00,,---,0.00,VWS V14.01,2013-06-14 17:43:00,
2013-06-14 13:48:00,70.3,40.7,0.00,North,3,0.0,0.0,34,0.00,,---,0.00,VWS V14.01,2013-06-14 17:48:00,
2013-06-14 13:53:00,70.0,40.3,0.00,North,0,0.0,0.0,34,0.00,,---,0.00,VWS V14.01,2013-06-14 17:53:00,
2013-06-14 13:58:00,70.0,40.3,0.00,North,0,0.0,0.0,34,0.00,,---,0.00,VWS V14.01,2013-06-14 17:58:00,
2013-06-14 14:03:00,69.6,40.0,0.00,North,0,0.0,0.0,34,0.00,,---,0.00,VWS V14.01,2013-06-14 18:03:00,
2013-06-14 14:08:00,69.3,39.7,0.00,WSW,258,0.0,0.0,34,0.00,,---,0.00,VWS V14.01,2013-06-14 18:08:00,
2013-06-14 14:13:00,69.3,39.7,0.00,NW,320,3.6,3.6,34,0.00,,---,0.00,VWS V14.01,2013-06-14 18:13:00,
2013-06-14 14:18:00,69.4,39.9,0.00,NW,320,3.6,3.6,34,0.00,,---,0.00,VWS V14.01,2013-06-14 18:18:00,
2013-06-14 14:23:00,69.4,39.9,0.00,NNE,21,0.0,0.0,34,0.00,,---,0.00,VWS V14.01,2013-06-14 18:23:00,
2013-06-14 14:28:00,68.4,38.9,0.00,WNW,285,0.0,0.0,34,0.00,,---,0.00,VWS V14.01,2013-06-14 18:28:00,
2013-06-14 14:33:00,68.2,39.5,0.00,WNW,291,0.0,0.0,35,0.00,,---,0.00,VWS V14.01,2013-06-14 18:33:00,
2013-06-14 14:38:00,68.2,39.5,0.00,WNW,291,0.0,0.0,35,0.00,,---,0.00,VWS V14.01,2013-06-14 18:38:00,
2013-06-14 14:43:00,67.6,39.8,0.00,WNW,291,0.0,0.0,36,0.00,,---,0.00,VWS V14.01,2013-06-14 18:43:00,
2013-06-14 14:48:00,67.3,40.1,0.00,NW,313,2.2,2.2,37,0.00,,---,0.00,VWS V14.01,2013-06-14 18:48:00,
2013-06-14 14:53:00,67.3,40.1,0.00,WNW,298,0.0,0.0,37,0.00,,---,0.00,VWS V14.01,2013-06-14 18:53:00,
2013-06-14 14:58:00,67.5,40.3,0.00,NE,46,0.0,0.0,37,0.00,,---,0.00,VWS V14.01,2013-06-14 18:58:00,
2013-06-14 15:03:00,67.5,40.3,0.00,NE,48,0.0,0.0,37,0.00,,---,0.00,VWS V14.01,2013-06-14 19:03:00,
2013-06-14 15:08:00,68.4,40.4,0.00,North,353,0.0,0.0,36,0.00,,---,0.00,VWS V14.01,2013-06-14 19:08:00,
2013-06-14 15:13:00,68.4,40.4,0.00,NNE,26,0.0,0.0,36,0.00,,---,0.00,VWS V14.01,2013-06-14 19:13:00,
2013-06-14 15:18:00,68.2,39.5,0.00,North,5,0.0,0.0,35,0.00,,---,0.00,VWS V14.01,2013-06-14 19:18:00,
2013-06-14 15:23:00,68.2,39.5,0.00,SE,131,0.0,0.0,35,0.00,,---,0.00,VWS V14.01,2013-06-14 19:23:00,
2013-06-14 15:28:00,67.5,38.9,0.00,NW,322,0.0,0.0,35,0.00,,---,0.00,VWS V14.01,2013-06-14 19:28:00,
2013-06-14 15:33:00,67.1,40.0,0.00,NNW,329,0.0,0.0,37,0.00,,---,0.00,VWS V14.01,2013-06-14 19:33:00,
2013-06-14 15:38:00,67.1,40.0,0.00,NNW,345,0.0,0.0,37,0.00,,---,0.00,VWS V14.01,2013-06-14 19:38:00,
2013-06-14 15:43:00,67.1,40.0,0.00,NE,41,0.0,0.0,37,0.00,,---,0.00,VWS V14.01,2013-06-14 19:43:00,
2013-06-14 15:48:00,67.1,40.0,0.00,NW,313,0.0,0.0,37,0.00,,---,0.00,VWS V14.01,2013-06-14 19:48:00,
2013-06-14 15:53:00,66.6,39.5,0.00,NW,316,0.0,0.0,37,0.00,,---,0.00,VWS V14.01,2013-06-14 19:53:00,
2013-06-14 15:58:00,66.7,39.7,0.00,NW,319,0.0,0.0,37,0.00,,---,0.00,VWS V14.01,2013-06-14 19:58:00,
2013-06-14 16:03:00,66.7,39.7,0.00,WNW,283,3.1,3.1,37,0.00,,---,0.00,VWS V14.01,2013-06-14 20:03:00,
2013-06-14 16:08:00,66.7,39.7,0.00,WNW,283,3.1,3.1,37,0.00,,---,0.00,VWS V14.01,2013-06-14 20:08:00,
2013-06-14 16:13:00,66.7,39.7,0.00,NE,38,0.0,0.0,37,0.00,,---,0.00,VWS V14.01,2013-06-14 20:13:00,
2013-06-14 16:18:00,66.6,38.8,0.00,NNE,32,0.0,0.0,36,0.00,,---,0.00,VWS V14.01,2013-06-14 20:18:00,
2013-06-14 16:23:00,66.6,38.8,0.00,East,84,0.0,0.0,36,0.00,,---,0.00,VWS V14.01,2013-06-14 20:23:00,
2013-06-14 16:28:00,66.7,39.0,0.00,South,174,0.0,0.0,36,0.00,,---,0.00,VWS V14.01,2013-06-14 20:28:00,
2013-06-14 16:33:00,66.7,39.0,0.00,WSW,242,0.0,0.0,36,0.00,,---,0.00,VWS V14.01,2013-06-14 20:33:00,
2013-06-14 16:38:00,66.7,39.7,0.00,NW,304,2.7,2.7,37,0.00,,---,0.00,VWS V14.01,2013-06-14 20:38:00,
2013-06-14 16:43:00,66.7,39.7,0.00,NW,304,2.7,2.7,37,0.00,,---,0.00,VWS V14.01,2013-06-14 20:43:00,
2013-06-14 16:48:00,66.6,39.5,0.00,NNE,12,0.0,0.0,37,0.00,,---,0.00,VWS V14.01,2013-06-14 20:48:00,
2013-06-14 16:53:00,66.4,40.0,0.00,ENE,61,0.0,0.0,38,0.00,,---,0.00,VWS V14.01,2013-06-14 20:53:00,
2013-06-14 16:58:00,66.4,40.0,0.00,NW,308,0.0,0.0,38,0.00,,---,0.00,VWS V14.01,2013-06-14 20:58:00,
2013-06-14 17:03:00,66.2,40.5,0.00,West,278,0.0,0.0,39,0.00,,---,0.00,VWS V14.01,2013-06-14 21:03:00,
2013-06-14 17:08:00,66.2,41.2,0.00,NNW,327,0.0,0.0,40,0.00,,---,0.00,VWS V14.01,2013-06-14 21:08:00,
2013-06-14 17:13:00,66.2,41.2,0.00,SE,142,3.1,3.1,40,0.00,,---,0.00,VWS V14.01,2013-06-14 21:13:00,
2013-06-14 17:18:00,66.0,42.3,0.00,SSE,155,0.0,0.0,42,0.00,,---,0.00,VWS V14.01,2013-06-14 21:18:00,
2013-06-14 17:23:00,66.0,43.5,0.00,SW,227,0.0,0.0,44,0.00,,---,0.00,VWS V14.01,2013-06-14 21:23:00,
2013-06-14 17:28:00,65.8,43.3,0.00,North,7,0.0,3.1,44,0.00,,---,0.00,VWS V14.01,2013-06-14 21:28:00,
2013-06-14 17:33:00,65.7,42.6,0.00,SW,214,0.0,0.0,43,0.00,,---,0.00,VWS V14.01,2013-06-14 21:33:00,
2013-06-14 17:38:00,65.1,42.1,0.00,SE,140,0.0,0.0,43,0.00,,---,0.00,VWS V14.01,2013-06-14 21:38:00,
2013-06-14 17:43:00,64.6,42.8,0.00,West,260,3.6,3.6,45,0.00,,---,0.00,VWS V14.01,2013-06-14 21:43:00,
2013-06-14 17:48:00,64.6,42.8,0.00,ESE,108,0.0,0.0,45,0.00,,---,0.00,VWS V14.01,2013-06-14 21:48:00,
2013-06-14 17:53:00,63.9,42.1,0.00,SE,143,0.0,0.0,45,0.00,,---,0.00,VWS V14.01,2013-06-14 21:53:00,
2013-06-14 17:58:00,63.9,42.1,0.00,SW,221,0.0,0.0,45,0.00,,---,0.00,VWS V14.01,2013-06-14 21:58:00,
2013-06-14 18:03:00,63.5,41.8,0.00,SSW,193,2.7,2.7,45,0.00,,---,0.00,VWS V14.01,2013-06-14 22:03:00,
2013-06-14 18:08:00,63.1,41.5,0.00,South,189,0.0,0.0,45,0.00,,---,0.00,VWS V14.01,2013-06-14 22:08:00,
2013-06-14 18:13:00,63.0,41.9,0.00,WSW,247,0.0,0.0,46,0.00,,---,0.00,VWS V14.01,2013-06-14 22:13:00,
2013-06-14 18:18:00,63.1,42.6,0.00,SE,145,0.0,0.0,47,0.00,,---,0.00,VWS V14.01,2013-06-14 22:18:00,
2013-06-14 18:23:00,63.1,42.0,0.00,SSE,151,0.0,0.0,46,0.00,,---,0.00,VWS V14.01,2013-06-14 22:23:00,
2013-06-14 18:28:00,63.0,42.4,0.00,SE,127,3.1,3.1,47,0.00,,---,0.00,VWS V14.01,2013-06-14 22:28:00,
2013-06-14 18:33:00,62.8,42.3,0.00,SE,125,0.0,0.0,47,0.00,,---,0.00,VWS V14.01,2013-06-14 22:33:00,
2013-06-14 18:38:00,62.8,42.3,0.00,ESE,122,0.0,0.0,47,0.00,,---,0.00,VWS V14.01,2013-06-14 22:38:00,
2013-06-14 18:43:00,62.8,42.8,0.00,South,186,0.0,0.0,48,0.00,,---,0.00,VWS V14.01,2013-06-14 22:43:00,
2013-06-14 18:48:00,63.0,43.5,0.00,South,184,0.0,0.0,49,0.00,,---,0.00,VWS V14.01,2013-06-14 22:48:00,
2013-06-14 18:53:00,62.8,43.4,0.00,SE,139,0.0,0.0,49,0.00,,---,0.00,VWS V14.01,2013-06-14 22:53:00,
2013-06-14 18:58:00,62.8,43.9,0.00,West,273,0.0,3.6,50,0.00,,---,0.00,VWS V14.01,2013-06-14 22:58:00,
2013-06-14 19:03:00,62.8,43.9,0.00,SE,128,2.7,2.7,50,0.00,,---,0.00,VWS V14.01,2013-06-14 23:03:00,
2013-06-14 19:08:00,63.0,44.6,0.00,SW,229,0.0,0.0,51,0.00,,---,0.00,VWS V14.01,2013-06-14 23:08:00,
2013-06-14 19:13:00,63.0,44.6,0.00,ESE,117,0.0,0.0,51,0.00,,---,0.00,VWS V14.01,2013-06-14 23:13:00,
2013-06-14 19:18:00,63.1,44.2,0.00,North,11,2.2,4.0,50,0.00,,---,0.00,VWS V14.01,2013-06-14 23:18:00,
2013-06-14 19:23:00,63.1,44.2,0.00,WSW,240,0.0,0.0,50,0.00,,---,0.00,VWS V14.01,2013-06-14 23:23:00,
2013-06-14 19:28:00,63.5,41.8,0.00,WSW,239,4.0,4.0,45,0.00,,---,0.00,VWS V14.01,2013-06-14 23:28:00,
2013-06-14 19:33:00,63.5,41.8,0.00,SW,219,0.0,0.0,45,0.00,,---,0.00,VWS V14.01,2013-06-14 23:33:00,
2013-06-14 19:38:00,63.5,40.6,0.00,WSW,249,0.0,0.0,43,0.00,,---,0.00,VWS V14.01,2013-06-14 23:38:00,
2013-06-14 19:43:00,63.9,40.3,0.00,North,0,4.0,4.0,42,0.00,,---,0.00,VWS V14.01,2013-06-14 23:43:00,
2013-06-14 19:48:00,63.9,40.3,0.00,East,97,2.7,2.7,42,0.00,,---,0.00,VWS V14.01,2013-06-14 23:48:00,
2013-06-14 19:53:00,63.9,40.3,0.00,NW,312,0.0,0.0,42,0.00,,---,0.00,VWS V14.01,2013-06-14 23:53:00,
2013-06-14 19:58:00,64.0,40.5,0.00,SW,231,0.0,0.0,42,0.00,,---,0.00,VWS V14.01,2013-06-14 23:58:00,
2013-06-14 20:03:00,64.2,40.7,0.00,SW,231,0.0,0.0,42,0.00,,---,0.00,VWS V14.01,2013-06-15 00:03:00,
2013-06-14 20:08:00,63.9,41.0,0.00,ESE,119,2.7,2.7,43,0.00,,---,0.00,VWS V14.01,2013-06-15 00:08:00,
2013-06-14 20:13:00,63.7,40.2,0.00,WSW,258,0.0,0.0,42,0.00,,---,0.00,VWS V14.01,2013-06-15 00:13:00,
2013-06-14 20:18:00,63.7,40.2,0.00,WSW,258,0.0,0.0,42,0.00,,---,0.00,VWS V14.01,2013-06-15 00:18:00,
2013-06-14 20:23:00,63.7,40.2,0.00,SW,232,0.0,0.0,42,0.00,,---,0.00,VWS V14.01,2013-06-15 00:23:00,
2013-06-14 20:28:00,62.8,40.0,0.00,SW,232,0.0,0.0,43,0.00,,---,0.00,VWS V14.01,2013-06-15 00:28:00,
2013-06-14 20:33:00,62.6,39.2,0.00,SW,232,0.0,0.0,42,0.00,,---,0.00,VWS V14.01,2013-06-15 00:33:00,
2013-06-14 20:38:00,62.4,39.0,0.00,WSW,245,0.0,0.0,42,0.00,,---,0.00,VWS V14.01,2013-06-15 00:38:00,
2013-06-14 20:43:00,62.4,39.0,0.00,WSW,245,0.0,0.0,42,0.00,,---,0.00,VWS V14.01,2013-06-15 00:43:00,
2013-06-14 20:48:00,61.9,39.2,0.00,WSW,245,0.0,0.0,43,0.00,,---,0.00,VWS V14.01,2013-06-15 00:48:00,
2013-06-14 20:53:00,60.8,39.3,0.00,WSW,245,0.0,0.0,45,0.00,,---,0.00,VWS V14.01,2013-06-15 00:53:00,
2013-06-14 20:58:00,60.3,40.0,0.00,WSW,245,0.0,0.0,47,0.00,,---,0.00,VWS V14.01,2013-06-15 00:58:00,
2013-06-14 21:03:00,60.1,39.8,0.00,WSW,245,0.0,0.0,47,0.00,,---,0.00,VWS V14.01,2013-06-15 01:03:00,
2013-06-14 21:08:00,60.1,39.8,0.00,WSW,245,0.0,0.0,47,0.00,,---,0.00,VWS V14.01,2013-06-15 01:08:00,
2013-06-14 21:13:00,59.4,40.7,0.00,WSW,245,0.0,0.0,50,0.00,,---,0.00,VWS V14.01,2013-06-15 01:13:00,
2013-06-14 21:18:00,59.2,40.6,0.00,WSW,245,0.0,0.0,50,0.00,,---,0.00,VWS V14.01,2013-06-15 01:18:00,
2013-06-14 21:23:00,59.2,40.6,0.00,WSW,245,0.0,0.0,50,0.00,,---,0.00,VWS V14.01,2013-06-15 01:23:00,
2013-06-14 21:28:00,58.3,40.8,0.00,WSW,245,0.0,0.0,52,0.00,,---,0.00,VWS V14.01,2013-06-15 01:28:00,
2013-06-14 21:33:00,58.3,40.8,0.00,WSW,245,0.0,0.0,52,0.00,,---,0.00,VWS V14.01,2013-06-15 01:33:00,
2013-06-14 21:38:00,58.3,40.8,0.00,WSW,245,0.0,0.0,52,0.00,,---,0.00,VWS V14.01,2013-06-15 01:38:00,
2013-06-14 21:43:00,57.4,41.4,0.00,WSW,245,0.0,0.0,55,0.00,,---,0.00,VWS V14.01,2013-06-15 01:43:00,
2013-06-14 21:48:00,57.4,41.4,0.00,WSW,245,0.0,0.0,55,0.00,,---,0.00,VWS V14.01,2013-06-15 01:48:00,
2013-06-14 21:53:00,57.0,42.4,0.00,NNW,346,0.0,0.0,58,0.00,,---,0.00,VWS V14.01,2013-06-15 01:53:00,
2013-06-14 21:58:00,57.0,42.4,0.00,NNW,346,0.0,0.0,58,0.00,,---,0.00,VWS V14.01,2013-06-15 01:58:00,
2013-06-14 22:03:00,56.8,42.7,0.00,NNW,346,0.0,0.0,59,0.00,,---,0.00,VWS V14.01,2013-06-15 02:03:00,
2013-06-14 22:08:00,56.8,42.7,0.00,NNW,346,0.0,0.0,59,0.00,,---,0.00,VWS V14.01,2013-06-15 02:08:00,
2013-06-14 22:13:00,56.8,42.7,0.00,NNW,346,0.0,0.0,59,0.00,,---,0.00,VWS V14.01,2013-06-15 02:13:00,
2013-06-14 22:18:00,56.5,42.3,0.00,NNW,346,0.0,0.0,59,0.00,,---,0.00,VWS V14.01,2013-06-15 02:18:00,
2013-06-14 22:23:00,56.3,42.2,0.00,NNW,346,0.0,0.0,59,0.00,,---,0.00,VWS V14.01,2013-06-15 02:23:00,
2013-06-14 22:28:00,55.9,42.3,0.00,SW,225,0.0,0.0,60,0.00,,---,0.00,VWS V14.01,2013-06-15 02:28:00,
2013-06-14 22:33:00,55.9,42.3,0.00,SW,225,0.0,0.0,60,0.00,,---,0.00,VWS V14.01,2013-06-15 02:33:00,
2013-06-14 22:38:00,55.9,42.3,0.00,SW,225,0.0,0.0,60,0.00,,---,0.00,VWS V14.01,2013-06-15 02:38:00,
2013-06-14 22:43:00,55.8,42.1,0.00,SW,225,0.0,0.0,60,0.00,,---,0.00,VWS V14.01,2013-06-15 02:43:00,
2013-06-14 22:48:00,55.6,41.9,0.00,SW,225,0.0,0.0,60,0.00,,---,0.00,VWS V14.01,2013-06-15 02:48:00,
2013-06-14 22:53:00,55.4,41.8,0.00,SW,225,0.0,0.0,60,0.00,,---,0.00,VWS V14.01,2013-06-15 02:53:00,
2013-06-14 22:58:00,55.4,42.2,0.00,SW,225,0.0,0.0,61,0.00,,---,0.00,VWS V14.01,2013-06-15 02:58:00,
2013-06-14 23:03:00,55.4,42.2,0.00,SW,225,0.0,0.0,61,0.00,,---,0.00,VWS V14.01,2013-06-15 03:03:00,
2013-06-14 23:08:00,55.0,41.8,0.00,SW,225,0.0,0.0,61,0.00,,---,0.00,VWS V14.01,2013-06-15 03:08:00,
2013-06-14 23:13:00,54.9,41.7,0.00,SW,225,0.0,0.0,61,0.00,,---,0.00,VWS V14.01,2013-06-15 03:13:00,
2013-06-14 23:18:00,54.5,41.3,0.00,SW,225,0.0,0.0,61,0.00,,---,0.00,VWS V14.01,2013-06-15 03:18:00,
2013-06-14 23:23:00,54.5,41.3,0.00,SW,225,0.0,0.0,61,0.00,,---,0.00,VWS V14.01,2013-06-15 03:23:00,
2013-06-14 23:28:00,54.5,41.3,0.00,SW,225,0.0,0.0,61,0.00,,---,0.00,VWS V14.01,2013-06-15 03:28:00,
2013-06-14 23:33:00,54.1,41.0,0.00,SW,225,0.0,0.0,61,0.00,,---,0.00,VWS V14.01,2013-06-15 03:33:00,
2013-06-14 23:38:00,54.1,41.0,0.00,SW,225,0.0,0.0,61,0.00,,---,0.00,VWS V14.01,2013-06-15 03:38:00,
2013-06-14 23:43:00,53.6,40.5,0.00,SW,225,0.0,0.0,61,0.00,,---,0.00,VWS V14.01,2013-06-15 03:43:00,
2013-06-14 23:48:00,53.4,40.7,0.00,SW,225,0.0,0.0,62,0.00,,---,0.00,VWS V14.01,2013-06-15 03:48:00,
2013-06-14 23:53:00,53.1,40.4,0.00,SW,225,0.0,0.0,62,0.00,,---,0.00,VWS V14.01,2013-06-15 03:53:00,
2013-06-14 23:58:00,53.1,40.4,0.00,SW,225,0.0,0.0,62,0.00,,---,0.00,VWS V14.01,2013-06-15 03:58:00,